Weather History for Richlands, VA

Change the Weather History Date:

Saturday, November 9, 2013

  Actual Average (KBLF) Record (KBLF)
Temperature  
Mean Temperature 43 °F 50 °F  
Max Temperature 54 °F 58 °F 75 °F (1994)
Min Temperature 32 °F 41 °F 18 °F (1995)
Degree Days  
Heating Degree Days 22 16  
Month to date heating degree days 129  
Since 1 July heating degree days 493  
Cooling Degree Days 0 0  
Month to date cooling degree days 0  
Year to date cooling degree days 851  
Moisture  
Dew Point 24 °F    
Average Humidity 44    
Maximum Humidity 67    
Minimum Humidity 31    
Precipitation  
Precipitation 0.00 in 0.09 in 2.52 in (1962)
Month to date precipitation 0.79  
Year to date precipitation 34.82  
Snow  
Snow 0.00 in - - ()
Month to date snowfall  
Since 1 July snowfall  
Since 1 September snowfall  
Snow Depth -    
Sea Level Pressure  
Sea Level Pressure 30.22 in    
Wind  
Wind Speed 4 mph (SW)    
Max Wind Speed 15 mph    
Max Gust Speed 25 mph    
Visibility 10 miles    
Events      
T = Trace of Precipitation, MM = Missing Value Source: NWS Daily Summary

Daily Weather History Graph

Daily Weather History Graph

Search for Another Location

Airport:

Trip Planner

Search our weather history database for the weather conditions in past years. The results will help you decide how hot, cold, wet, or windy it might be!

Date:

Astronomy

Nov. 09, 2013 Rise Set
Actual Time 6:59 AM EST 5:21 PM EST
Civil Twilight 6:32 AM EST 5:49 PM EST
Nautical Twilight 6:01 AM EST 6:20 PM EST
Astronomical Twilight 5:30 AM EST 6:50 PM EST
Moon 12:37 PM EST (11/9) 11:48 PM EST (11/9)
Length of Visible Light 11h 16m
Length of Day
10h 21m
Waxing Crescent, 44% of the Moon is Illuminated
Nov 9
Waxing Crescent
Nov 10
First Quarter
Nov 17
Full
Nov 25
Last Quarter
Dec 2
New

Hourly Weather History & Observations

Time (EST) Temp. Windchill Dew Point Humidity Pressure Visibility Wind Dir Wind Speed Gust Speed Precip Events Conditions
12:15 AM 36.5 °F - 21.2 °F 54% 30.26 in 10.0 mi Calm Calm - N/A   Clear
12:35 AM 38.5 °F - 21.0 °F 50% 30.26 in 10.0 mi Calm Calm - N/A   Clear
12:55 AM 35.1 °F - 21.9 °F 59% 30.27 in 10.0 mi Calm Calm - N/A   Clear
1:15 AM 37.4 °F - 21.0 °F 52% 30.26 in 10.0 mi Calm Calm - N/A   Clear
1:35 AM 38.7 °F 36.3 °F 20.8 °F 49% 30.26 in 10.0 mi ESE 3.5 mph - N/A   Clear
1:55 AM 39.4 °F 36.1 °F 20.8 °F 47% 30.24 in 10.0 mi SSE 4.6 mph - N/A   Clear
2:15 AM 38.1 °F - 21.6 °F 51% 30.24 in 10.0 mi Calm Calm - N/A   Clear
2:35 AM 34.7 °F 31.8 °F 22.3 °F 61% 30.24 in 10.0 mi NW 3.5 mph - N/A   Clear
2:55 AM 36.7 °F - 21.7 °F 55% 30.24 in - Calm Calm - N/A   Clear
3:15 AM 34.0 °F - 23.0 °F 64% 30.24 in - Calm Calm - N/A   Clear
3:35 AM 37.4 °F - 21.6 °F 53% 30.25 in - Calm Calm - N/A   Clear
3:55 AM 32.9 °F - 23.0 °F 67% 30.25 in 10.0 mi Calm Calm - N/A   Clear
4:15 AM 38.8 °F - 21.0 °F 49% 30.25 in 10.0 mi Calm Calm - N/A   Clear
4:35 AM 36.1 °F - 21.7 °F 56% 30.25 in 10.0 mi Calm Calm - N/A   Clear
4:55 AM 36.3 °F - 21.2 °F 54% 30.25 in 10.0 mi Calm Calm - N/A   Clear
5:15 AM 35.6 °F - 21.4 °F 56% 30.24 in 10.0 mi Calm Calm - N/A   Clear
5:35 AM 36.3 °F - 21.2 °F 54% 30.24 in 10.0 mi Calm Calm - N/A   Clear
5:55 AM 37.2 °F 33.6 °F 20.8 °F 52% 30.23 in 10.0 mi SSE 4.6 mph - N/A   Clear
6:15 AM 36.9 °F 34.3 °F 21.2 °F 53% 30.23 in 10.0 mi SSE 3.5 mph - N/A   Clear
6:35 AM 37.4 °F 34.9 °F 20.1 °F 50% 30.24 in 10.0 mi SSE 3.5 mph - N/A   Clear
6:55 AM 35.8 °F 31.9 °F 20.8 °F 55% 30.24 in 10.0 mi SE 4.6 mph - N/A   Clear
7:15 AM 34.9 °F - 21.7 °F 59% 30.24 in 10.0 mi Calm Calm - N/A   Clear
7:35 AM 37.6 °F - 21.2 °F 52% 30.25 in - Calm Calm - N/A   Clear
7:55 AM 40.3 °F - 22.6 °F 49% 30.25 in - Calm Calm - N/A   Clear
8:15 AM 38.1 °F - 23.0 °F 55% 30.26 in - Calm Calm - N/A   Clear
8:35 AM 41.9 °F - 24.4 °F 50% 30.26 in - Calm Calm - N/A   Clear
8:55 AM 43.7 °F - 28.8 °F 56% 30.27 in - Calm Calm - N/A   Clear
9:15 AM 43.7 °F - 26.2 °F 50% 30.27 in - Calm Calm - N/A   Clear
9:35 AM 44.8 °F - 25.5 °F 47% 30.26 in - Calm Calm - N/A   Clear
9:55 AM 47.8 °F - 25.3 °F 41% 30.26 in - SW 6.9 mph - N/A   Clear
10:15 AM 47.5 °F - 25.9 °F 43% 30.26 in - Calm Calm - N/A   Clear
10:35 AM 48.9 °F - 25.0 °F 39% 30.26 in - West 9.2 mph - N/A   Clear
10:55 AM 50.0 °F - 25.2 °F 38% 30.26 in - West 9.2 mph - N/A   Clear
11:15 AM 52.5 °F - 24.8 °F 34% 30.25 in - SW 6.9 mph 17.3 mph N/A   Clear
11:35 AM 53.2 °F - 25.5 °F 34% 30.25 in - WSW 8.1 mph 16.1 mph N/A   Clear
11:55 AM 53.1 °F - 23.5 °F 32% 30.24 in - WSW 12.7 mph 24.2 mph N/A   Clear
12:15 PM 54.7 °F - 25.3 °F 32% 30.24 in - WSW 12.7 mph 23.0 mph N/A   Clear
12:35 PM 53.1 °F - 23.4 °F 32% 30.23 in - SW 12.7 mph 20.7 mph N/A   Clear
12:55 PM 52.7 °F - 23.5 °F 32% 30.22 in - SW 15.0 mph 21.9 mph N/A   Clear
1:15 PM 53.6 °F - 23.9 °F 32% 30.20 in - WSW 12.7 mph 23.0 mph N/A   Clear
1:35 PM 53.8 °F - 23.4 °F 31% 30.20 in - SW 15.0 mph 19.6 mph N/A   Clear
1:55 PM 52.9 °F - 23.5 °F 32% 30.20 in - SW 11.5 mph 21.9 mph N/A   Clear
2:15 PM 53.1 °F - 24.8 °F 33% 30.20 in - SW 10.4 mph 17.3 mph N/A   Clear
2:35 PM 52.7 °F - 24.1 °F 33% 30.19 in - WSW 8.1 mph 23.0 mph N/A   Clear
2:55 PM 52.5 °F - 24.1 °F 33% 30.20 in - SSW 10.4 mph 18.4 mph N/A   Clear
3:15 PM 52.2 °F - 24.4 °F 34% 30.19 in - SW 12.7 mph 17.3 mph N/A   Clear
3:35 PM 52.2 °F - 23.7 °F 33% 30.20 in - SSW 10.4 mph 17.3 mph N/A   Clear
3:55 PM 52.2 °F - 23.7 °F 33% 30.20 in - SW 10.4 mph 16.1 mph N/A   Clear
4:15 PM 52.0 °F - 23.7 °F 33% 30.20 in - SW 9.2 mph 20.7 mph N/A   Clear
4:35 PM 51.8 °F - 23.4 °F 33% 30.20 in - WSW 10.4 mph 17.3 mph N/A   Clear
4:55 PM 51.8 °F - 23.5 °F 33% 30.20 in - WSW 9.2 mph 16.1 mph N/A   Clear
5:15 PM 51.4 °F - 23.5 °F 34% 30.19 in - SW 11.5 mph - N/A   Clear
5:35 PM 50.5 °F - 23.9 °F 35% 30.19 in 10.0 mi SW 9.2 mph - N/A   Clear
5:55 PM 50.2 °F - 23.7 °F 36% 30.19 in 10.0 mi SSW 9.2 mph - N/A   Clear
6:15 PM 49.8 °F - 23.7 °F 36% 30.18 in 10.0 mi SSW 5.8 mph - N/A   Clear
6:35 PM 49.5 °F - 23.0 °F 35% 30.18 in 10.0 mi SW 9.2 mph - N/A   Clear
6:55 PM 49.1 °F - 23.0 °F 36% 30.17 in 10.0 mi SSW 6.9 mph - N/A   Clear
7:15 PM 48.6 °F - 23.4 °F 37% 30.17 in 10.0 mi SW 6.9 mph - N/A   Clear
7:35 PM 48.7 °F - 23.9 °F 38% 30.17 in 10.0 mi SSW 4.6 mph - N/A   Clear
7:55 PM 48.0 °F - 25.3 °F 41% 30.18 in 10.0 mi WSW 8.1 mph - N/A   Clear
8:15 PM 48.4 °F - 25.7 °F 41% 30.19 in 10.0 mi WSW 15.0 mph 19.6 mph N/A   Clear
8:35 PM 48.4 °F - 25.9 °F 42% 30.19 in 10.0 mi WSW 12.7 mph 20.7 mph N/A   Clear
8:55 PM 48.2 °F - 25.7 °F 42% 30.19 in 10.0 mi SW 8.1 mph - N/A   Clear
9:35 PM 49.1 °F - 25.2 °F 39% 30.19 in 10.0 mi SW 8.1 mph 23.0 mph N/A   Mostly Cloudy
9:55 PM 48.7 °F - 25.3 °F 40% 30.19 in 10.0 mi WSW 12.7 mph 16.1 mph N/A   Mostly Cloudy
10:15 PM 49.3 °F - 25.0 °F 39% 30.19 in 10.0 mi WSW 12.7 mph 25.3 mph N/A   Mostly Cloudy
10:35 PM 48.9 °F - 25.2 °F 40% 30.19 in 10.0 mi WSW 15.0 mph 25.3 mph N/A   Mostly Cloudy
10:55 PM 48.6 °F - 25.2 °F 40% 30.20 in 10.0 mi WSW 11.5 mph 19.6 mph N/A   Overcast
11:15 PM 47.7 °F - 25.3 °F 42% 30.20 in 10.0 mi WSW 10.4 mph 19.6 mph N/A   Scattered Clouds
11:35 PM 47.3 °F - 25.5 °F 43% 30.21 in 10.0 mi WSW 4.6 mph - N/A   Clear
11:55 PM 46.6 °F - 25.7 °F 44% 30.21 in 10.0 mi WSW 6.9 mph - N/A   Clear